Fort Worth Alliance, TX

11:30 PM CDT on June 28, 2017 (GMT -0500)
Fort Worth Alliance

Weather History for KAFW - May, 2013

Change the Weather History Date:

Monday, May 20, 2013

  Actual Average Record
Temperature  
Mean Temperature 81 °F -  
Max Temperature 91 °F 82 °F 97 °F (2005)
Min Temperature 73 °F 61 °F 37 °F (1997)
Cooling Degree Days 16    
Growing Degree Days 31 (Base 50)    
Moisture  
Dew Point 68 °F    
Average Humidity 67    
Maximum Humidity 84    
Minimum Humidity 50    
Precipitation  
Precipitation 0.00 in - - ()
Sea Level Pressure  
Sea Level Pressure 29.69 in    
Wind  
Wind Speed 16 mph (South)    
Max Wind Speed 22 mph    
Max Gust Speed 33 mph    
Visibility 10 miles    
Events Thunderstorm    
Averages and records for this station are not official NWS values.
T = Trace of Precipitation, MM = Missing Value Source: NWS Daily Summary

Daily Weather History Graph

Daily Weather History Graph

Search for Another Location

Airport or City:

Trip Planner

Search our weather history database for the weather conditions in past years. The results will help you decide how hot, cold, wet, or windy it might be!

Date:

Astronomy

May. 20, 2013 Rise Set
Actual Time 6:26 AM CDT 8:25 PM CDT
Civil Twilight 5:59 AM CDT 8:53 PM CDT
Nautical Twilight 5:25 AM CDT 9:26 PM CDT
Astronomical Twilight 4:49 AM CDT 10:02 PM CDT
Moon 3:48 PM CDT (5/20) 3:06 AM CDT (5/20)
Length of Visible Light 14h 54m
Length of Day
13h 58m
Waxing Gibbous, 75% of the Moon is Illuminated
May 20
Waxing Gibbous
May 24
Full
May 31
Last Quarter
Jun 8
New
Jun 16
First Quarter

Hourly Weather History & Observations

Time (CDT) Temp. Heat Index Dew Point Humidity Pressure Visibility Wind Dir Wind Speed Gust Speed Precip Events Conditions
12:53 AM 77.0 °F - 66.0 °F 69% 29.69 in 10.0 mi South 21.9 mph 31.1 mph N/A   Clear
1:53 AM 75.9 °F - 66.0 °F 71% 29.68 in 10.0 mi South 16.1 mph 33.4 mph N/A   Clear
2:53 AM 73.9 °F - 66.9 °F 79% 29.68 in 10.0 mi South 16.1 mph 26.5 mph N/A   Clear
3:53 AM 73.0 °F - 66.9 °F 81% 29.69 in 9.0 mi South 12.7 mph 23.0 mph N/A   Scattered Clouds
4:43 AM 73.4 °F - 66.2 °F 78% 29.74 in 9.0 mi South 9.2 mph 23.0 mph N/A   Mostly Cloudy
4:53 AM 73.0 °F - 66.9 °F 81% 29.70 in 9.0 mi South 11.5 mph 21.9 mph N/A   Mostly Cloudy
5:53 AM 73.0 °F - 68.0 °F 84% 29.70 in 9.0 mi South 12.7 mph 21.9 mph N/A   Mostly Cloudy
6:19 AM 73.4 °F - 66.2 °F 78% 29.75 in 10.0 mi South 12.7 mph 23.0 mph N/A   Scattered Clouds
6:53 AM 73.0 °F - 66.9 °F 81% 29.73 in 8.0 mi South 10.4 mph 21.9 mph N/A   Partly Cloudy
7:53 AM 73.9 °F - 68.0 °F 82% 29.74 in 8.0 mi South 15.0 mph 25.3 mph N/A   Partly Cloudy
8:53 AM 77.0 °F - 68.0 °F 74% 29.75 in 8.0 mi South 18.4 mph 26.5 mph N/A   Scattered Clouds
9:53 AM 80.1 °F 82.3 °F 66.9 °F 64% 29.75 in 8.0 mi South 20.7 mph 29.9 mph N/A   Partly Cloudy
10:53 AM 82.9 °F 85.8 °F 68.0 °F 60% 29.74 in 10.0 mi South 15.0 mph 27.6 mph N/A   Partly Cloudy
11:53 AM 84.9 °F 87.6 °F 66.9 °F 55% 29.74 in 9.0 mi South 21.9 mph 31.1 mph N/A   Partly Cloudy
12:53 PM 87.1 °F 90.6 °F 68.0 °F 53% 29.72 in 10.0 mi South 16.1 mph 28.8 mph N/A   Partly Cloudy
1:53 PM 89.1 °F 92.9 °F 68.0 °F 50% 29.69 in 10.0 mi South 17.3 mph 28.8 mph N/A   Partly Cloudy
2:53 PM 89.1 °F 93.7 °F 69.1 °F 52% 29.68 in 10.0 mi South 13.8 mph 25.3 mph N/A   Partly Cloudy
3:53 PM 89.1 °F 93.7 °F 69.1 °F 52% 29.62 in 10.0 mi South 20.7 mph 31.1 mph N/A   Partly Cloudy
4:53 PM 88.0 °F 92.1 °F 69.1 °F 53% 29.62 in 10.0 mi South 18.4 mph 31.1 mph N/A   Partly Cloudy
5:53 PM 84.9 °F 88.2 °F 68.0 °F 57% 29.62 in 10.0 mi South 17.3 mph 31.1 mph N/A   Partly Cloudy
6:53 PM 84.0 °F 86.5 °F 66.9 °F 56% 29.59 in 10.0 mi SSE 21.9 mph 27.6 mph N/A   Clear
7:53 PM 82.9 °F 85.8 °F 68.0 °F 60% 29.60 in 10.0 mi South 15.0 mph 32.2 mph N/A   Clear
8:43 PM 82.4 °F 85.4 °F 68.0 °F 62% 29.70 in 10.0 mi South 8.1 mph 19.6 mph N/A Thunderstorm Thunderstorm
9:53 PM 80.1 °F 82.9 °F 69.1 °F 69% 29.65 in 10.0 mi SE 13.8 mph - 0.00 in Thunderstorm Thunderstorm
10:17 PM 80.6 °F 83.9 °F 69.8 °F 70% 29.69 in 10.0 mi SE 15.0 mph 25.3 mph N/A   Partly Cloudy
10:53 PM 81.0 °F 83.8 °F 68.0 °F 65% 29.64 in 10.0 mi SSE 17.3 mph 25.3 mph N/A   Clear
11:53 PM 81.0 °F 83.8 °F 68.0 °F 65% 29.63 in 10.0 mi South 16.1 mph 25.3 mph N/A   Clear